User: anonymous   Login
Location: Waco, TX
(31.5480°N, 97.1670°W)
Time: 12:04:11
(UTC-05:00)
Language:

ISS - Orbit

View from above orbital plane
View from above orbital plane
View from above satellite
View from above satellite

Ground track
Ground track

The orbit data is extracted from the following two-line orbital elements,

1 25544U 98067A   17269.50277888  .00016717  00000-0  10270-3 0  9041
2 25544  51.6372 253.2571 0004120 327.4101  32.6797 15.54260194 37502
Epoch (UTC): 26 September 2017 12:04:00
Eccentricity: 0.0004120
inclination: 51.6372°
perigee height: 401 km
apogee height: 407 km
right ascension of ascending node: 253.2571°
argument of perigee: 327.4101°
revolutions per day: 15.54260194
mean anomaly at epoch: 32.6797°
orbit number at epoch: 3750

The dashed part of the orbit path shows where the satellite is in the earth's shadow,  

DLR